Wind_Speed
34 31 28 28 24 20 18 19 17 14 9 10 8 8 9 5 4 3 6 9 12 12 11 12 13 16 19 22 27 30 31 34 39
35 34 32 32 30 27 24 23 22 19 16 12 10 7 6 8 7 8 11 13 12 13 12 11 11 14 16 20 22 28 28 32 36
44 40 39 36 32 31 29 28 26 23 22 18 16 16 13 13 11 11 14 14 14 14 12 11 10 11 11 19 20 24 26 29 34
48 47 45 42 38 34 32 31 31 27 27 26 23 22 21 19 19 18 15 15 14 14 11 11 12 10 10 18 19 21 26 28 31
48 51 51 45 44 39 36 35 34 32 31 28 29 29 28 27 24 21 20 16 12 8 10 12 12 10 12 15 18 21 27 28 27
55 55 54 52 46 45 40 39 40 37 36 34 32 31 30 29 25 22 23 18 13 13 13 15 11 11 11 15 16 20 24 26 27
63 59 58 58 58 53 47 43 43 41 41 40 36 35 32 31 29 28 24 22 18 15 18 17 14 14 14 17 19 20 25 26 27
68 67 64 60 58 57 53 47 48 45 44 42 38 38 37 35 32 32 29 26 24 23 23 19 18 20 19 20 22 22 24 28 29
74 72 69 64 62 58 53 52 50 49 49 46 44 40 37 37 35 34 32 30 29 27 25 22 22 23 25 25 23 25 26 29 30
78 76 73 70 70 66 61 58 55 55 54 52 49 46 45 43 39 34 34 32 32 30 27 27 25 25 25 24 26 26 28 28 30
83 82 79 76 74 73 72 68 64 60 62 58 56 52 51 50 48 44 38 32 30 32 30 30 27 27 29 29 30 30 33 33 32
89 88 85 83 79 76 77 74 70 68 67 68 64 61 56 56 55 50 44 44 38 35 34 31 33 36 37 37 36 36 38 36 35
96 94 92 88 85 80 79 78 75 74 71 72 70 65 62 63 63 59 55 51 47 46 44 42 39 39 40 40 41 39 39 39 42
103 99 98 93 89 88 86 83 80 79 77 77 75 73 71 69 65 65 62 59 57 54 52 48 45 45 44 43 44 41 45 46 46
108 103 104 96 93 93 91 89 88 84 83 82 79 81 77 74 72 70 66 64 61 59 60 59 54 53 53 51 49 47 51 50 51
111 109 110 101 98 98 97 96 92 88 88 88 85 83 85 82 81 77 75 71 70 65 65 64 62 59 60 59 57 57 54 54 55
113 115 113 104 105 103 101 102 98 94 92 92 91 90 88 87 87 86 81 78 76 73 70 71 67 70 65 65 64 62 62 58 59
119 115 114 113 110 111 106 106 104 100 97 96 98 98 96 93 91 91 88 84 80 81 78 75 73 74 73 72 71 71 68 68 64
122 119 114 114 116 114 110 111 111 107 102 99 102 101 101 101 98 95 93 89 87 85 87 82 79 80 81 81 77 72 77 76 71
127 121 121 119 118 115 111 111 113 111 113 108 103 106 102 100 102 102 102 92 91 91 91 92 87 84 85 88 87 80 78 81 79
Wind_Direction
237 220 222 219 225 230 223 212 215 213 228 233 230 225 219 205 235 274 316 330 337 341 353 11 22 33 27 34 29 27 21 22 21
237 238 221 219 222 224 224 210 213 212 222 232 237 240 230 234 247 269 284 302 316 327 334 345 359 10 19 25 29 16 19 19 15
242 242 240 231 230 226 230 229 213 217 227 231 238 245 255 267 265 277 278 295 302 308 316 328 331 4 7 8 10 15 12 8 4
239 240 240 243 235 229 227 225 226 231 231 234 237 243 250 260 266 272 275 276 294 293 310 315 316 322 337 348 354 359 360 358 2
241 243 239 241 240 235 230 228 230 232 231 233 240 245 250 258 260 266 272 279 287 289 301 307 312 309 325 333 338 349 355 359 7
235 237 239 240 237 239 232 232 231 233 231 233 236 242 245 249 256 260 267 262 272 267 291 297 295 309 331 332 332 339 352 353 354
241 238 238 238 240 239 240 235 235 234 236 237 240 245 247 249 256 260 265 261 266 268 285 285 281 298 317 316 329 323 339 347 344
241 240 242 241 241 240 239 237 236 239 239 242 243 246 247 247 253 260 268 265 264 268 282 287 278 290 306 308 311 326 333 334 335
239 240 241 242 243 237 238 243 240 242 239 240 242 242 245 252 255 259 267 262 264 268 277 279 280 279 295 298 306 312 324 324 328
240 239 240 241 242 238 238 242 242 248 241 241 241 246 247 251 252 258 262 264 264 269 273 276 276 280 288 293 298 306 313 319 320
237 241 242 241 240 239 239 241 245 248 246 241 240 245 249 249 252 252 262 266 261 263 270 275 278 283 290 292 296 302 305 310 312
236 238 239 240 240 240 241 241 246 246 250 243 239 242 247 250 251 254 259 263 264 264 264 271 276 279 281 288 292 294 299 301 307
235 237 238 240 240 241 243 245 246 247 247 244 244 245 247 253 258 256 259 264 264 268 270 274 279 283 285 286 291 292 294 295 300
235 236 238 237 239 239 240 243 245 246 247 248 246 249 252 253 258 261 262 266 267 271 272 276 279 279 281 286 288 283 291 297 296
236 236 239 235 238 240 240 240 243 247 249 252 251 249 252 257 260 262 266 267 265 270 273 272 276 279 281 283 285 282 290 291 295
236 237 239 238 237 241 242 243 243 244 248 250 253 253 252 253 260 262 262 266 267 268 269 272 272 277 279 282 283 286 290 291 290
237 239 241 240 241 240 242 245 245 245 247 250 252 251 253 252 255 258 260 261 264 266 268 270 271 273 276 276 279 280 283 286 288
235 237 241 242 241 244 243 243 245 246 247 250 253 253 252 252 254 256 258 261 262 265 265 268 270 270 273 275 276 277 279 283 283
233 237 239 241 243 243 245 245 245 246 246 250 251 252 252 251 254 256 258 259 261 264 265 264 267 270 271 269 272 276 278 278 281
231 235 239 240 243 243 244 247 248 247 247 248 250 251 250 251 254 257 257 258 261 263 266 264 264 268 271 271 270 272 277 277 279
Height
10890 10892 10893 10895 10898 10901 10903 10904 10906 10908 10909 10909 10909 10909 10910 10910 10910 10910 10910 10910 10909 10908 10907 10907 10906 10904 10901 10899 10897 10894 10892 10889 10886
10884 10887 10888 10891 10893 10896 10899 10901 10903 10905 10907 10908 10908 10908 10908 10909 10909 10909 10909 10909 10908 10907 10907 10907 10906 10904 10903 10900 10898 10895 10893 10890 10887
10878 10880 10883 10885 10888 10891 10894 10897 10899 10901 10903 10904 10905 10906 10906 10907 10907 10907 10908 10908 10907 10906 10905 10905 10905 10904 10903 10900 10898 10896 10893 10890 10888
10871 10874 10876 10880 10882 10885 10888 10891 10894 10897 10899 10900 10901 10903 10903 10904 10905 10905 10905 10905 10904 10904 10903 10903 10902 10902 10902 10900 10898 10896 10893 10890 10887
10864 10867 10869 10873 10876 10878 10882 10885 10889 10891 10894 10895 10896 10897 10899 10900 10901 10901 10902 10902 10902 10902 10901 10901 10900 10900 10899 10899 10897 10895 10893 10890 10888
10856 10859 10863 10866 10869 10872 10876 10879 10882 10885 10887 10889 10891 10892 10894 10896 10896 10897 10898 10898 10899 10899 10899 10898 10898 10898 10897 10896 10895 10894 10892 10890 10887
10847 10850 10853 10857 10861 10865 10868 10872 10876 10878 10881 10883 10886 10887 10889 10890 10892 10892 10893 10894 10895 10895 10896 10895 10895 10895 10894 10893 10893 10892 10890 10888 10886
10835 10841 10845 10848 10853 10857 10861 10863 10868 10872 10874 10877 10879 10881 10883 10885 10886 10887 10888 10889 10890 10891 10892 10892 10891 10891 10890 10890 10889 10888 10888 10886 10884
10824 10830 10836 10840 10845 10849 10853 10856 10859 10863 10866 10869 10871 10873 10876 10878 10880 10881 10882 10884 10885 10886 10887 10887 10886 10886 10886 10885 10885 10885 10884 10883 10881
10812 10820 10825 10829 10834 10838 10842 10847 10851 10854 10858 10860 10863 10865 10868 10871 10872 10874 10877 10878 10879 10880 10881 10882 10882 10881 10881 10881 10881 10881 10880 10878 10877
10801 10807 10811 10816 10820 10825 10830 10835 10840 10843 10848 10851 10853 10856 10859 10861 10864 10866 10869 10871 10872 10873 10874 10876 10877 10877 10876 10876 10876 10876 10876 10875 10873
10784 10789 10793 10800 10807 10813 10820 10824 10829 10833 10837 10839 10842 10845 10849 10852 10854 10857 10860 10863 10865 10866 10867 10869 10870 10870 10870 10870 10870 10871 10870 10869 10868
10766 10772 10779 10785 10793 10800 10806 10811 10815 10819 10824 10828 10831 10834 10838 10841 10844 10848 10851 10854 10856 10858 10860 10861 10862 10862 10863 10864 10863 10864 10864 10863 10861
10745 10756 10760 10769 10776 10783 10790 10795 10799 10804 10809 10815 10819 10823 10826 10828 10832 10835 10839 10843 10847 10848 10850 10852 10853 10854 10854 10855 10855 10856 10856 10856 10854
10725 10737 10741 10752 10760 10765 10773 10779 10783 10789 10794 10799 10806 10810 10813 10817 10819 10823 10827 10830 10834 10837 10838 10841 10843 10844 10844 10845 10846 10847 10847 10847 10847
10708 10717 10722 10735 10745 10749 10757 10761 10768 10773 10777 10783 10790 10796 10800 10804 10807 10810 10813 10817 10821 10825 10827 10828 10832 10833 10834 10834 10835 10836 10837 10838 10837
10689 10697 10703 10715 10724 10733 10740 10744 10751 10758 10762 10767 10772 10780 10785 10790 10793 10795 10798 10802 10806 10811 10813 10815 10819 10821 10822 10823 10824 10825 10826 10827 10828
10672 10676 10683 10692 10704 10710 10721 10727 10733 10740 10745 10750 10755 10762 10769 10771 10776 10779 10782 10785 10791 10795 10798 10801 10804 10806 10809 10811 10812 10813 10814 10814 10816
10654 10659 10663 10671 10678 10689 10698 10705 10713 10722 10727 10733 10736 10742 10748 10751 10758 10762 10764 10768 10773 10777 10782 10787 10789 10790 10794 10797 10798 10800 10801 10801 10801
10632 10642 10646 10652 10660 10672 10676 10682 10688 10700 10706 10716 10718 10722 10730 10734 10738 10744 10747 10752 10754 10759 10762 10768 10772 10774 10776 10780 10782 10785 10786 10787 10786